TimePST,TemperatureF,Dew PointF,Humidity,Sea Level PressureIn,VisibilityMPH,Wind Direction,Wind SpeedMPH,Gust SpeedMPH,PrecipitationIn,Events,Conditions,WindDirDegrees,DateUTC
12:52 AM,50.0,39.0,66,30.20,10.0,Calm,Calm,-,N/A,,Mostly Cloudy,0,2013-01-29 08:52:00
1:52 AM,48.9,39.0,69,30.21,10.0,East,3.5,-,N/A,,Mostly Cloudy,100,2013-01-29 09:52:00
2:52 AM,46.9,37.9,71,30.21,9.0,East,4.6,-,N/A,,Scattered Clouds,90,2013-01-29 10:52:00
3:52 AM,48.0,37.9,68,30.20,10.0,ESE,3.5,-,N/A,,Scattered Clouds,110,2013-01-29 11:52:00
4:52 AM,46.9,37.9,71,30.20,10.0,Calm,Calm,-,N/A,,Scattered Clouds,0,2013-01-29 12:52:00
5:52 AM,46.0,37.9,73,30.22,10.0,Calm,Calm,-,N/A,,Scattered Clouds,0,2013-01-29 13:52:00
6:52 AM,46.0,37.9,73,30.23,10.0,ESE,3.5,-,N/A,,Mostly Cloudy,110,2013-01-29 14:52:00
7:52 AM,50.0,41.0,71,30.24,9.0,ESE,3.5,-,N/A,,Mostly Cloudy,110,2013-01-29 15:52:00
8:52 AM,53.1,42.1,66,30.24,10.0,East,5.8,-,N/A,,Mostly Cloudy,90,2013-01-29 16:52:00
9:24 AM,55.4,42.8,63,30.24,10.0,SE,6.9,-,N/A,,Mostly Cloudy,130,2013-01-29 17:24:00
9:52 AM,57.0,44.1,62,30.24,10.0,SE,6.9,-,N/A,,Mostly Cloudy,140,2013-01-29 17:52:00
10:52 AM,59.0,46.0,62,30.24,10.0,South,9.2,-,N/A,,Mostly Cloudy,180,2013-01-29 18:52:00
11:52 AM,60.1,46.9,62,30.22,10.0,South,9.2,-,N/A,,Mostly Cloudy,190,2013-01-29 19:52:00
12:52 PM,60.1,46.9,62,30.18,10.0,SSW,9.2,-,N/A,,Mostly Cloudy,210,2013-01-29 20:52:00
1:52 PM,60.8,46.4,59,30.17,10.0,SW,10.4,-,N/A,,Mostly Cloudy,220,2013-01-29 21:52:00
2:52 PM,60.1,46.9,62,30.17,10.0,SW,10.4,-,N/A,,Mostly Cloudy,220,2013-01-29 22:52:00
3:52 PM,60.1,44.1,55,30.17,10.0,SW,8.1,-,N/A,,Mostly Cloudy,220,2013-01-29 23:52:00
4:52 PM,57.9,43.0,58,30.18,10.0,SSW,5.8,-,N/A,,Mostly Cloudy,210,2013-01-30 00:52:00
5:30 PM,-9999,-9999,N/A,-9999,-9999.0,North,-9999.0,-,N/A,,Unknown,0,2013-01-30 01:30:00
5:52 PM,55.9,43.0,62,30.20,10.0,Calm,Calm,-,N/A,,Mostly Cloudy,0,2013-01-30 01:52:00
6:52 PM,55.0,43.0,64,30.20,10.0,Calm,Calm,-,N/A,,Scattered Clouds,0,2013-01-30 02:52:00
7:52 PM,54.0,45.0,72,30.20,10.0,SSE,3.5,-,N/A,,Scattered Clouds,160,2013-01-30 03:52:00
8:52 PM,53.1,45.0,74,30.20,6.0,SE,5.8,-,N/A,,Haze,130,2013-01-30 04:52:00
9:52 PM,53.1,45.0,74,30.19,9.0,East,3.5,-,N/A,,Scattered Clouds,90,2013-01-30 05:52:00
10:52 PM,53.1,44.1,71,30.21,10.0,East,3.5,-,N/A,,Scattered Clouds,80,2013-01-30 06:52:00
11:52 PM,52.0,44.1,74,30.22,10.0,Calm,Calm,-,N/A,,Scattered Clouds,0,2013-01-30 07:52:00